Preview of NWS' New Version of Forecast
This preview is not operational and should not be used for support decisions.
Latest weather observations around

Cincinnati/Northern Kentucky International Airport (KCVG)

Using English Units (Switch to International System of Units)
Date/ Time (EDT) Wind (mph) Vis. (mi) Weather Sky Cond. Temp (°F) Rel. Humidity Wind Chill (°F) Heat Index (°F) Pressure Precip. (in)
Air Dwpt 6 hour Altimeter (inHg) Sea level (inHg) 1 hr 3 hr 6 hr
Max Min
Jun 25 20:52 SW 5 10 Mostly Clear FEW250 75 61     62%   75 30.02 30      
Jun 25 19:52 SW 8 10 Partly Cloudy SCT250 80 59     49%   81 30.02 29.99      
Jun 25 18:52 SW 8 10 Partly Cloudy SCT250 81 59     47%   81 30.01 29.98      
Jun 25 17:52 SW 11 10 Mostly Cloudy FEW050 BKN250 80 58     47%   80 30.02 29.99      
Jun 25 16:52 SW 7 10 Mostly Clear FEW055 FEW250 82 59     46%   82 30.02 29.99      
Jun 25 15:52 SW 10 10 Partly Cloudy FEW050 SCT250 82 58     44%   82 30.03 30      
Jun 25 14:52 W 8 10 Partly Cloudy FEW049 SCT300 81 59     47%   81 30.04 30.01      
Jun 25 13:52 SW 9 10 Partly Cloudy FEW050 SCT300 81 60     49%   82 30.04 30.01      
Jun 25 12:52 W 8 10 Mostly Clear FEW038 FEW047 78 62     58%   78 30.05 30.02      
Jun 25 11:52 W 8 10 Mostly Clear FEW032 78 64     62%   79 30.04 30.01      
Jun 25 10:52 WSW 8 10 Mostly Clear FEW028 FEW300 75 63     66%   75 30.03 30      
Jun 25 09:52 W 8 10 Mostly Clear FEW300 72 63     73%   72 30.02 29.99      
Jun 25 08:52 W 8 10 Partly Cloudy SCT300 69 63     81%     30 29.98      
Jun 25 07:52 WSW 5 10 Partly Cloudy SCT300 66 62     87%     29.98 29.95      
Jun 25 06:52 WSW 5 10 Mostly Cloudy BKN300 65 62     90%     29.96 29.93      
Jun 25 05:52 WSW 5 10 Mostly Cloudy BKN250 64 61     90%     29.93 29.91      
Jun 25 04:52 WSW 6 10 Mostly Clear FEW250 65 62     90%     29.9 29.88      
Jun 25 03:52 W 5 10 Mostly Clear FEW250 66 63     90%     29.89 29.87      
Jun 25 02:52 WSW 6 10 Mostly Clear FEW110 67 64     90%     29.88 29.85      
Jun 25 01:52 WSW 7 10 Mostly Clear FEW004 FEW075 FEW100 68 65     90%     29.87 29.85     0
Jun 25 01:34 SW 10 10 Partly Cloudy FEW004 SCT090 SCT110 68 66     93%     29.87        
Jun 25 00:59 WSW 5 10 Mostly Cloudy SCT017 SCT080 BKN100 68 65     90%     29.85        
Jun 25 00:52 SW 3 10 Cloudy BKN013 BKN080 OVC100 69 65     87%     29.85 29.82 0    
Jun 25 00:43 WNW 9 7 Light Rain BKN014 BKN090 OVC110 69 66     90%     29.86   0    
Jun 24 23:52 SSW 9 10 Light Rain FEW038 SCT075 BKN095 OVC130 71 65     81%   72 29.84 29.81 0    
Jun 24 22:52 SW 8 10 Mostly Clear FEW045 FEW250 70 65     84%     29.83 29.8      
Jun 24 21:52 S 7 10 Partly Cloudy SCT045 SCT250 70 65     84%     29.81 29.79      
Jun 24 20:52 SW 7 10 Clear   72 65     79%   73 29.81 29.78      
Jun 24 19:52 WSW 9 10 Partly Cloudy SCT026 SCT250 74 65     74%   74 29.79 29.77     1
Jun 24 18:52 WSW 10 10 Mostly Cloudy SCT014 BKN250 74 67     79%   75 29.75 29.72      
Jun 24 17:52   10 Clear   73 67     81%   74 29.74 29.71 0    
Jun 24 17:09 W 10 10 Cloudy BKN010 BKN022 OVC120 72 68     87%   73 29.73   0    
Jun 24 16:52 W 6 7 Light Rain FEW008 BKN095 OVC200 72 68     87%   73 29.72 29.69 0 1  
Jun 24 16:10 W 9 2.5 Rain and Fog/Mist FEW004 BKN030 OVC050 69 66     90%     29.74   0    
Jun 24 15:52   1 Heavy Rain and Fog/Mist FEW004 BKN024 OVC032 70 68     93%     29.74 29.72 0    
Jun 24 15:46 W 13 1.5 Heavy Rain and Fog/Mist FEW014 BKN023 OVC032 72 68     88%   73 29.74   0    
Jun 24 15:15 S 3 2.5 Rain BKN037 BKN047 OVC060 73 68     84%   74 29.73   0    
Jun 24 14:52 S 5 10 Cloudy FEW011 FEW040 BKN055 OVC110 74 68     82%   75 29.73 29.7 0    
Jun 24 13:52 SSW 11 10 Light Rain FEW019 SCT050 OVC085 74 67     79%   75 29.79 29.76 0   0
Jun 24 12:52 SSW 11 10 Cloudy SCT022 BKN055 OVC110 76 67     74%   77 29.8 29.77      
Jun 24 11:52 SW 9 10 Cloudy FEW055 BKN080 OVC095 75 67     76%   76 29.81 29.78 0    
Jun 24 10:52 SSW 11 10 Cloudy SCT090 OVC110 76 67     74%   77 29.81 29.78      
Jun 24 09:52 SW 11 10 Cloudy FEW085 BKN110 OVC130 73 67     81%   74 29.82 29.79      
Jun 24 08:52 SW 14 10 Mostly Cloudy FEW010 BKN110 BKN250 73 67     81%   74 29.81 29.78      
Jun 24 07:52 SSW 10 10 Mostly Cloudy FEW008 FEW065 SCT170 BKN250 70 67     90%     29.81 29.78      
Jun 24 06:52 S 9 10 Partly Cloudy FEW170 SCT250 68 65     90%     29.8 29.78      
Jun 24 05:52 SSW 7 10 Partly Cloudy SCT250 67 65     93%     29.8 29.77      
Jun 24 04:52 SSW 8 10 Mostly Clear FEW035 68 65     90%     29.79 29.76      
Jun 24 03:52 S 10 10 Clear CLR 69 65     87%     29.79 29.76      
Jun 24 02:52 S 9 10 Mostly Cloudy BKN200 69 65     87%     29.81 29.78      
Jun 24 01:52 S 8 10 Mostly Cloudy BKN160 BKN200 68 65     90%     29.83 29.8     0
Jun 24 00:52 S 6 10 Mostly Cloudy BKN032 BKN041 69 65     87%     29.86 29.83      
Jun 23 23:52 SSE 8 10 Cloudy BKN042 BKN060 OVC070 70 65     84%     29.85 29.83      
Jun 23 22:52   10 Clear CLR 70 66     87%     29.86 29.83   0  
Jun 23 22:01 SE 16 10 Mostly Cloudy BKN005 69 66     90%     29.86        
Jun 23 21:52 SSE 15 10 Mostly Cloudy SCT005 SCT085 BKN200 69 67     93%     29.86 29.83      
Jun 23 21:32 SSE 14 10 Mostly Cloudy SCT005 SCT085 BKN180 69 67     93%     29.87        
Jun 23 20:52 SE 10 10 Mostly Cloudy FEW015 SCT090 BKN160 70 67     90%     29.88 29.85 0    
Jun 23 19:52 N 7 10 Light Rain SCT110 BKN130 70 67     90%     29.88 29.86 0   0
Jun 23 18:52 SSE 7 10 Light Rain BKN100 69 66     90%     29.94 29.91 0    
Jun 23 18:41 S 7 8 Thunderstorms and Rain FEW060 SCT090 BKN110 68 65     90%     29.95   0    
Jun 23 18:11 SW 8 3 Thunderstorms and Rain and Fog/Mist FEW034 SCT060 OVC090 68 64     87%     29.97   0    
Jun 23 17:52   3 Thunderstorms and Rain FEW046 BKN060 BKN080 70 63     78%     29.95 29.92 0    
Jun 23 17:40   10 Thunderstorms FEW030 BKN060 OVC120 78 64     62%   79 29.95        
Jun 23 16:52 S 8 10 Mostly Cloudy BKN032 BKN040 BKN048 81 69     67%   84 29.93 29.9      
Jun 23 15:52 S 8 10 Mostly Cloudy SCT030 BKN037 BKN250 83 70     65%   87 29.95 29.92      
Jun 23 14:52 SSW 9 10 Mostly Cloudy SCT025 BKN200 BKN250 81 70     69%   84 29.98 29.95      
Jun 23 13:52 S 7 10 Mostly Cloudy SCT025 BKN200 BKN250 79 68     69%   80 29.99 29.97      
Jun 23 12:52 S 10 10 Mostly Cloudy FEW030 SCT150 BKN200 BKN250 78 66     67%   79 30.01 29.98      
Jun 23 11:52 SSE 10 10 Mostly Cloudy SCT150 BKN200 BKN250 74 63     69%   74 30.01 29.99      
Jun 23 11:12 S 14 10 Mostly Cloudy BKN150 BKN200 BKN250 75 62     64%   75 30.03        
Jun 23 10:52 ESE 14 10 Mostly Cloudy BKN150 BKN200 BKN250 73 60     64%   73 29.99 29.97      
Jun 23 09:52 ESE 13 10 Mostly Cloudy BKN150 BKN250 71 58     63%   71 30.04 30.01      
Jun 23 08:52 SE 9 10 Mostly Cloudy BKN150 BKN250 69 58     68%     30.07 30.04      
Jun 23 07:52 ESE 9 10 Mostly Cloudy FEW100 BKN150 BKN250 67 58     73%     30.05 30.03      
Jun 23 06:52 E 5 10 Partly Cloudy SCT250 63 58     84%     30.05 30.02      
Jun 23 05:52 E 8 10 Clear   63 58     84%     30.04 30.02      
Jun 23 04:52 E 8 10 Partly Cloudy SCT250 63 58     84%     30.06 30.03      
Jun 23 03:52 E 6 10 Clear CLR 64 58     81%     30.07 30.04      
Jun 23 02:52 Calm 10 Clear CLR 65 58     78%     30.08 30.06      
Jun 23 01:52 ESE 5 10 Clear CLR 65 58     78%     30.07 30.05      
Jun 23 00:52 S 3 10 Clear CLR 65 58     78%     30.1 30.07      
Jun 22 23:52 SE 5 10 Mostly Clear FEW250 67 58     73%     30.07 30.04      
May 14 21:52 SW 6 10 Clear CLR 78 62     58%   78 29.91 29.88      
May 14 14:52 SW 9 10 Partly Cloudy SCT065 88 63     43%   89 29.97 29.93      
May 14 07:52 SSW 5 7 Mostly Clear FEW150 71 64     79%   72 30 29.97      
May 14 06:52 SW 6 10 Mostly Clear FEW150 68 63     84%     29.99 29.96      
May 13 22:52 SSW 7 10 Mostly Clear FEW200 73 65     76%   74 29.99 29.96      
May 13 10:53 WSW 10 10 Clear CLR 81 64     56%   83 30.03 30      
May 12 10:52 WSW 13 10 Partly Cloudy FEW070 FEW130 SCT150 SCT200 78 61     56%   78 30.08 30.04      
May 12 00:52 SSW 6 10 Mostly Clear FEW250 70 59     68%     30 29.96      
May 11 16:52 SSW 15 10 Cloudy SCT065 OVC250 84 58     41%   83 29.93 29.9      
Jun 11 13:52 SSW 14 10 Partly Cloudy SCT050 SCT060 86 63     46%   87 30.13 30.09      
Jun 11 09:52 SW 7 10 Clear CLR 77 63     62%   77 30.15 30.12      
Jun 11 05:52 S 7 10 Clear CLR 62 58     86%     30.1 30.07      
Jun 11 00:52 S 7 10 Clear CLR 67 59     76%     30.05 30.02      
Jun 10 18:52 SSW 10 10 Mostly Clear FEW050 FEW250 82 57     43%   82 29.99 29.97      
Jun 10 13:52 SSW 10 10 Partly Cloudy FEW130 SCT150 SCT200 81 56     42%   81 30.05 30.02      
Jun 09 16:52 SW 8 10 Mostly Clear FEW060 81 54     39%   81 29.91 29.89      
Jun 09 13:52 SW 13 10 Mostly Clear FEW130 79 52     39%   78 29.95 29.93      
Jun 09 12:52 SW 11 10 Mostly Clear FEW090 77 52     42%   76 29.96 29.94      
Jun 07 23:52 NE 9 10 Partly Cloudy SCT055 60 48     64%     30.03 30.02      
Jun 06 14:52 N 14 10 Mostly Clear FEW055 76 49     39%   75 29.91 29.88      
Jun 06 04:52 NNE 11 10 Mostly Clear FEW080 FEW250 61 53     75%     29.87 29.85      
Jun 05 16:52 W 9 4 Thunderstorms and Rain SCT038 BKN055 OVC200 69 63     81%     29.73 29.7 0 0